| time (UTC) | temp C | wind direction | speed KPH | gust KPH | rain 1hr cm | rain 24hr cm | rain mn cm | humidity % | barometer mb |
| 20260504194904 | 24 | 207 | 4.8 | 8.0 | 0.00 | 0.00 | 0.00 | 32 | 1013.0 |
| 20260504194142 | 24 | 208 | 4.8 | 8.0 | 0.00 | 0.00 | 0.00 | 31 | 1013.1 |
| 20260504193643 | 24 | 223 | 3.2 | 8.0 | 0.00 | 0.00 | 0.00 | 29 | 1013.3 |
| 20260504193142 | 24 | 226 | 3.2 | 9.7 | 0.00 | 0.00 | 0.00 | 32 | 1013.2 |
| 20260504192644 | 24 | 229 | 3.2 | 9.7 | 0.00 | 0.00 | 0.00 | 30 | 1013.3 |
| 20260504192144 | 23 | 165 | 3.2 | 11.3 | 0.00 | 0.00 | 0.00 | 29 | 1013.4 |
| 20260504191643 | 23 | 229 | 4.8 | 11.3 | 0.00 | 0.00 | 0.00 | 29 | 1013.4 |
| 20260504191144 | 24 | 229 | 3.2 | 8.0 | 0.00 | 0.00 | 0.00 | 29 | 1013.6 |
| 20260504190643 | 24 | 211 | 3.2 | 6.4 | 0.00 | 0.00 | 0.00 | 32 | 1013.6 |
| 20260504190137 | 23 | 221 | 3.2 | 8.0 | 0.00 | 0.00 | 0.00 | 32 | 1013.6 |
| 20260504185630 | 23 | 222 | 3.2 | 8.0 | 0.00 | 0.00 | 0.00 | 30 | 1013.6 |
| 20260504185125 | 24 | 175 | 4.8 | 8.0 | 0.00 | 0.00 | 0.00 | 30 | 1013.6 |
| 20260504184619 | 24 | 240 | 4.8 | 9.7 | 0.00 | 0.00 | 0.00 | 29 | 1013.8 |
| 20260504184113 | 24 | 219 | 4.8 | 12.9 | 0.00 | 0.00 | 0.00 | 30 | 1013.8 |
| 20260504183606 | 25 | 189 | 3.2 | 11.3 | 0.00 | 0.00 | 0.00 | 28 | 1013.8 |
| 20260504183100 | 25 | 310 | 4.8 | 9.7 | 0.00 | 0.00 | 0.00 | 29 | 1013.9 |
| 20260504182553 | 25 | 241 | 3.2 | 8.0 | 0.00 | 0.00 | 0.00 | 28 | 1013.9 |
| 20260504182049 | 25 | 196 | 3.2 | 6.4 | 0.00 | 0.00 | 0.00 | 30 | 1013.9 |
| 20260504181800 | 25 | 216 | 3.2 | 4.8 | 0.00 | 0.00 | 0.00 | 31 | 1013.9 |
| 20260504181037 | 24 | 200 | 4.8 | 9.7 | 0.00 | 0.00 | 0.00 | 29 | 1014.0 |
| 20260504180529 | 24 | 192 | 4.8 | 9.7 | 0.00 | 0.00 | 0.00 | 28 | 1014.2 |
| 20260504180024 | 24 | 205 | 3.2 | 8.0 | 0.00 | 0.00 | 0.00 | 28 | 1014.1 |
| 20260504175519 | 24 | 271 | 3.2 | 8.0 | 0.00 | 0.00 | 0.00 | 28 | 1014.2 |
| 20260504175013 | 24 | 244 | 3.2 | 9.7 | 0.00 | 0.00 | 0.00 | 30 | 1014.0 |
| 20260504174220 | 24 | 238 | 3.2 | 8.0 | 0.00 | 0.00 | 0.00 | 30 | 1014.3 |
| 20260504173718 | 23 | 213 | 3.2 | 8.0 | 0.00 | 0.00 | 0.00 | 29 | 1014.4 |
| 20260504172949 | 23 | 237 | 3.2 | 8.0 | 0.00 | 0.00 | 0.00 | 29 | 1014.5 |
| 20260504172443 | 23 | 202 | 3.2 | 8.0 | 0.00 | 0.00 | 0.00 | 33 | 1014.5 |
| 20260504171937 | 23 | 200 | 3.2 | 8.0 | 0.00 | 0.00 | 0.00 | 29 | 1014.6 |
| 20260504171431 | 23 | 191 | 3.2 | 6.4 | 0.00 | 0.00 | 0.00 | 32 | 1014.6 |
| 20260504170926 | 23 | 298 | 3.2 | 8.0 | 0.00 | 0.00 | 0.00 | 32 | 1014.6 |
| 20260504170418 | 23 | 329 | 3.2 | 9.7 | 0.00 | 0.00 | 0.00 | 34 | 1014.8 |
| 20260504160307 | 22 | 225 | 3.2 | 8.0 | 0.00 | 0.00 | 0.00 | 37 | 1015.7 |
| 20260504150700 | 21 | 209 | 1.6 | 4.8 | 0.00 | 0.00 | 0.00 | 45 | 1015.9 |
| 20260504150155 | 20 | 281 | 1.6 | 4.8 | 0.00 | 0.00 | 0.00 | 44 | 1016.0 |
| 20260504141150 | 18 | 244 | 1.6 | 4.8 | 0.00 | 0.00 | 0.00 | 51 | 1016.1 |
| 20260504140650 | 17 | 244 | 1.6 | 4.8 | 0.00 | 0.00 | 0.00 | 55 | 1016.2 |
| 20260504140236 | 17 | 246 | 1.6 | 3.2 | 0.00 | 0.00 | 0.00 | 55 | 1016.1 |
| 20260504130637 | 15 | 201 | 3.2 | 8.0 | 0.00 | 0.00 | 0.00 | 61 | 1016.5 |
| 20260504130132 | 15 | 246 | 3.2 | 8.0 | 0.00 | 0.00 | 0.00 | 62 | 1016.6 |
| 20260504110413 | 11 | 263 | 1.6 | 3.2 | 0.00 | 0.00 | 0.00 | 72 | 1016.9 |
| 20260504100530 | 10 | 264 | 1.6 | 3.2 | 0.00 | 0.00 | 0.00 | 78 | 1016.9 |
| 20260504081658 | 10 | 270 | 1.6 | 3.2 | 0.00 | 0.00 | 0.00 | 79 | 1017.2 |
| 20260504081424 | 10 | 270 | 1.6 | 3.2 | 0.00 | 0.00 | 0.00 | 79 | 1017.3 |
| 20260504080658 | 10 | 270 | 1.6 | 4.8 | 0.00 | 0.00 | 0.00 | 79 | 1017.2 |
| 20260504080416 | 10 | 270 | 3.2 | 4.8 | 0.00 | 0.00 | 0.00 | 78 | 1017.4 |
| 20260504070150 | 10 | 321 | 1.6 | 4.8 | 0.00 | 0.00 | 0.00 | 78 | 1017.5 |
| 20260504060147 | 10 | 342 | 1.6 | 4.8 | 0.00 | 0.00 | 0.00 | 75 | 1017.5 |
| 20260504050540 | 9 | 316 | 1.6 | 6.4 | 0.00 | 0.00 | 0.00 | 74 | 1017.4 |
| 20260504045529 | 8 | 248 | 1.6 | 4.8 | 0.00 | 0.00 | 0.00 | 74 | 1017.5 |
| 20260504045022 | 8 | 247 | 0.0 | 4.8 | 0.00 | 0.00 | 0.00 | 74 | 1017.5 |
| 20260504044738 | 7 | 246 | 0.0 | 4.8 | 0.00 | 0.00 | 0.00 | 75 | 1017.6 |
| 20260504044011 | 7 | 246 | 0.0 | 4.8 | 0.00 | 0.00 | 0.00 | 76 | 1017.6 |
| 20260504043727 | 7 | 233 | 0.0 | 3.2 | 0.00 | 0.00 | 0.00 | 78 | 1017.6 |
| 20260504042959 | 7 | 229 | 0.0 | 0.0 | 0.00 | 0.00 | 0.00 | 78 | 1017.5 |
| 20260504042453 | 7 | 229 | 0.0 | 0.0 | 0.00 | 0.00 | 0.00 | 78 | 1017.6 |
| 20260504041947 | 7 | 229 | 0.0 | 0.0 | 0.00 | 0.00 | 0.00 | 77 | 1017.5 |
| 20260504041441 | 7 | 229 | 0.0 | 0.0 | 0.00 | 0.00 | 0.00 | 76 | 1017.7 |
| 20260504040935 | 7 | 229 | 0.0 | 0.0 | 0.00 | 0.00 | 0.00 | 75 | 1017.5 |
| 20260504040428 | 7 | 229 | 0.0 | 0.0 | 0.00 | 0.00 | 0.00 | 75 | 1017.5 |
| 20260504035925 | 7 | 229 | 0.0 | 0.0 | 0.00 | 0.00 | 0.00 | 76 | 1017.6 |
| 20260504035420 | 7 | 229 | 0.0 | 0.0 | 0.00 | 0.00 | 0.00 | 76 | 1017.5 |
| 20260504034913 | 8 | 229 | 0.0 | 0.0 | 0.00 | 0.00 | 0.00 | 76 | 1017.5 |
| 20260504034407 | 8 | 229 | 0.0 | 0.0 | 0.00 | 0.00 | 0.00 | 75 | 1017.5 |
| 20260504033900 | 8 | 229 | 0.0 | 0.0 | 0.00 | 0.00 | 0.00 | 76 | 1017.4 |
| 20260504033358 | 8 | 229 | 0.0 | 0.0 | 0.00 | 0.00 | 0.00 | 75 | 1017.3 |
| 20260504032859 | 8 | 229 | 0.0 | 0.0 | 0.00 | 0.00 | 0.00 | 74 | 1017.4 |
| 20260504032619 | 8 | 229 | 0.0 | 0.0 | 0.00 | 0.00 | 0.00 | 74 | 1017.4 |
| 20260504031859 | 8 | 229 | 0.0 | 0.0 | 0.00 | 0.00 | 0.00 | 73 | 1017.3 |
| 20260504031621 | 8 | 229 | 0.0 | 0.0 | 0.00 | 0.00 | 0.00 | 74 | 1017.4 |
| 20260504030857 | 8 | 229 | 0.0 | 0.0 | 0.00 | 0.00 | 0.00 | 73 | 1017.3 |
| 20260504030359 | 8 | 229 | 0.0 | 0.0 | 0.00 | 0.00 | 0.00 | 73 | 1017.4 |
| 20260504025858 | 8 | 229 | 0.0 | 0.0 | 0.00 | 0.00 | 0.00 | 71 | 1017.3 |
| 20260504025355 | 8 | 229 | 0.0 | 0.0 | 0.00 | 0.00 | 0.00 | 71 | 1017.3 |
| 20260504024855 | 8 | 229 | 0.0 | 0.0 | 0.00 | 0.00 | 0.00 | 75 | 1017.4 |
| 20260504024354 | 8 | 229 | 0.0 | 0.0 | 0.00 | 0.00 | 0.00 | 74 | 1017.3 |
| 20260504024121 | 8 | 229 | 0.0 | 0.0 | 0.00 | 0.00 | 0.00 | 71 | 1017.4 |
| 20260504023612 | 8 | 229 | 0.0 | 0.0 | 0.00 | 0.00 | 0.00 | 71 | 1017.4 |
| 20260504022855 | 8 | 229 | 0.0 | 0.0 | 0.00 | 0.00 | 0.00 | 71 | 1017.4 |
| 20260504022349 | 8 | 229 | 0.0 | 0.0 | 0.00 | 0.00 | 0.00 | 72 | 1017.4 |
| 20260504021849 | 8 | 229 | 0.0 | 0.0 | 0.00 | 0.00 | 0.00 | 72 | 1017.4 |
| 20260504021352 | 8 | 229 | 0.0 | 0.0 | 0.00 | 0.00 | 0.00 | 71 | 1017.4 |
| 20260504020850 | 8 | 229 | 0.0 | 0.0 | 0.00 | 0.00 | 0.00 | 71 | 1017.5 |
| 20260504020350 | 8 | 229 | 0.0 | 0.0 | 0.00 | 0.00 | 0.00 | 70 | 1017.3 |
| 20260504020108 | 8 | 229 | 0.0 | 0.0 | 0.00 | 0.00 | 0.00 | 70 | 1017.3 |
| 20260504015350 | 9 | 229 | 0.0 | 0.0 | 0.00 | 0.00 | 0.00 | 70 | 1017.3 |
| 20260504014851 | 9 | 229 | 0.0 | 0.0 | 0.00 | 0.00 | 0.00 | 73 | 1017.2 |
| 20260504014349 | 9 | 229 | 0.0 | 0.0 | 0.00 | 0.00 | 0.00 | 71 | 1017.2 |
| 20260504013850 | 9 | 229 | 0.0 | 0.0 | 0.00 | 0.00 | 0.00 | 71 | 1017.1 |
| 20260504013606 | 9 | 229 | 0.0 | 0.0 | 0.00 | 0.00 | 0.00 | 69 | 1017.0 |
| 20260504013327 | 9 | 229 | 0.0 | 0.0 | 0.00 | 0.00 | 0.00 | 67 | 1017.1 |
| 20260504012345 | 10 | 229 | 0.0 | 0.0 | 0.00 | 0.00 | 0.00 | 67 | 1017.0 |
| 20260504011844 | 10 | 229 | 0.0 | 0.0 | 0.00 | 0.00 | 0.00 | 66 | 1017.0 |
| 20260504011343 | 10 | 229 | 0.0 | 0.0 | 0.00 | 0.00 | 0.00 | 65 | 1016.9 |
| 20260504010842 | 10 | 229 | 0.0 | 0.0 | 0.00 | 0.00 | 0.00 | 65 | 1016.9 |
| 20260504010342 | 10 | 229 | 0.0 | 0.0 | 0.00 | 0.00 | 0.00 | 65 | 1016.9 |
| 20260504005839 | 10 | 229 | 0.0 | 0.0 | 0.00 | 0.00 | 0.00 | 62 | 1016.9 |
| 20260504005339 | 11 | 229 | 0.0 | 0.0 | 0.00 | 0.00 | 0.00 | 61 | 1016.9 |
| 20260504004839 | 11 | 229 | 0.0 | 0.0 | 0.00 | 0.00 | 0.00 | 61 | 1016.9 |
| 20260504004339 | 11 | 229 | 0.0 | 0.0 | 0.00 | 0.00 | 0.00 | 61 | 1016.8 |
| 20260504003841 | 11 | 229 | 0.0 | 0.0 | 0.00 | 0.00 | 0.00 | 60 | 1016.8 |
| 20260504003339 | 11 | 229 | 0.0 | 0.0 | 0.00 | 0.00 | 0.00 | 58 | 1016.8 |
| 20260504003059 | 12 | 229 | 0.0 | 0.0 | 0.00 | 0.00 | 0.00 | 55 | 1016.7 |
| 20260504002339 | 12 | 229 | 0.0 | 0.0 | 0.00 | 0.00 | 0.00 | 54 | 1016.6 |
| 20260504001834 | 12 | 229 | 0.0 | 0.0 | 0.00 | 0.00 | 0.00 | 53 | 1016.6 |
| 20260504001328 | 13 | 229 | 0.0 | 0.0 | 0.00 | 0.00 | 0.00 | 51 | 1016.4 |
| 20260504000822 | 13 | 229 | 0.0 | 0.0 | 0.00 | 0.00 | 0.00 | 48 | 1016.4 |
| 20260504000316 | 13 | 229 | 0.0 | 0.0 | 0.00 | 0.00 | 0.00 | 45 | 1016.3 |
| 20260503235809 | 14 | 229 | 0.0 | 0.0 | 0.00 | 0.00 | 0.00 | 44 | 1016.3 |
| 20260503235304 | 14 | 229 | 0.0 | 0.0 | 0.00 | 0.00 | 0.00 | 44 | 1016.3 |
| 20260503234758 | 15 | 229 | 0.0 | 0.0 | 0.00 | 0.00 | 0.00 | 41 | 1016.3 |
| 20260503234252 | 15 | 229 | 0.0 | 0.0 | 0.00 | 0.00 | 0.00 | 41 | 1016.3 |
| 20260503233745 | 15 | 229 | 0.0 | 0.0 | 0.00 | 0.00 | 0.00 | 38 | 1016.2 |
| 20260503233503 | 15 | 229 | 0.0 | 1.6 | 0.00 | 0.00 | 0.00 | 41 | 1016.2 |
| 20260503232733 | 16 | 229 | 0.0 | 1.6 | 0.00 | 0.00 | 0.00 | 38 | 1016.2 |
| 20260503232452 | 16 | 229 | 0.0 | 3.2 | 0.00 | 0.00 | 0.00 | 36 | 1016.2 |
| 20260503231722 | 16 | 229 | 1.6 | 3.2 | 0.00 | 0.00 | 0.00 | 36 | 1016.1 |
| 20260503231215 | 16 | 229 | 1.6 | 3.2 | 0.00 | 0.00 | 0.00 | 35 | 1016.1 |
| 20260503230939 | 16 | 229 | 0.0 | 1.6 | 0.00 | 0.00 | 0.00 | 34 | 1016.1 |
| 20260503230204 | 16 | 229 | 0.0 | 1.6 | 0.00 | 0.00 | 0.00 | 37 | 1016.1 |
| 20260503225658 | 16 | 229 | 0.0 | 3.2 | 0.00 | 0.00 | 0.00 | 35 | 1016.0 |
| 20260503225152 | 17 | 229 | 1.6 | 3.2 | 0.00 | 0.00 | 0.00 | 35 | 1016.1 |
| 20260503224726 | 17 | 229 | 1.6 | 4.8 | 0.00 | 0.00 | 0.00 | 33 | 1016.1 |
| 20260503223732 | 17 | 229 | 1.6 | 4.8 | 0.00 | 0.00 | 0.00 | 32 | 1016.1 |
| 20260503222622 | 17 | 0 | 1.6 | 4.8 | 0.00 | 0.00 | 0.00 | 32 | 1016.0 |
| 20260503222115 | 17 | 0 | 1.6 | 8.0 | 0.00 | 0.00 | 0.00 | 33 | 1016.1 |
| 20260503221610 | 17 | 355 | 1.6 | 8.0 | 0.00 | 0.00 | 0.00 | 32 | 1016.1 |
| 20260503221104 | 17 | 0 | 1.6 | 6.4 | 0.00 | 0.00 | 0.00 | 31 | 1016.2 |
| 20260503220558 | 17 | 0 | 1.6 | 6.4 | 0.00 | 0.00 | 0.00 | 32 | 1016.1 |
| 20260503220052 | 17 | 274 | 1.6 | 3.2 | 0.00 | 0.00 | 0.00 | 33 | 1016.3 |
| 20260503220028 | 17 | 275 | 1.6 | 4.8 | 0.00 | 0.00 | 0.00 | 31 | 1016.1 |
| 20260503215040 | 17 | 274 | 1.6 | 6.4 | 0.00 | 0.00 | 0.00 | 32 | 1016.1 |
| 20260503214539 | 17 | 271 | 1.6 | 6.4 | 0.00 | 0.00 | 0.00 | 32 | 1016.1 |
| 20260503214039 | 17 | 315 | 1.6 | 4.8 | 0.00 | 0.00 | 0.00 | 32 | 1016.1 |
| 20260503213756 | 17 | 323 | 1.6 | 8.0 | 0.00 | 0.00 | 0.00 | 32 | 1015.9 |
| 20260503213300 | 17 | 36 | 3.2 | 8.0 | 0.00 | 0.00 | 0.00 | 31 | 1016.1 |
| 20260503212538 | 17 | 185 | 3.2 | 6.4 | 0.00 | 0.00 | 0.00 | 32 | 1016.0 |
| 20260503212036 | 17 | 212 | 3.2 | 8.0 | 0.00 | 0.00 | 0.00 | 31 | 1016.0 |
| 20260503211537 | 17 | 217 | 1.6 | 8.0 | 0.00 | 0.00 | 0.00 | 32 | 1016.1 |
| 20260503211037 | 17 | 240 | 1.6 | 4.8 | 0.00 | 0.00 | 0.00 | 35 | 1016.0 |
| 20260503210534 | 17 | 240 | 1.6 | 4.8 | 0.00 | 0.00 | 0.00 | 32 | 1016.0 |
| 20260503210035 | 17 | 209 | 1.6 | 3.2 | 0.00 | 0.00 | 0.00 | 31 | 1016.0 |
| 20260503205534 | 17 | 290 | 1.6 | 6.4 | 0.00 | 0.00 | 0.00 | 34 | 1015.9 |
| 20260503205035 | 17 | 291 | 1.6 | 6.4 | 0.00 | 0.00 | 0.00 | 32 | 1015.9 |
| 20260503204535 | 17 | 226 | 3.2 | 12.9 | 0.00 | 0.00 | 0.00 | 33 | 1016.0 |
| 20260503204035 | 17 | 167 | 3.2 | 12.9 | 0.00 | 0.00 | 0.00 | 33 | 1015.9 |
| 20260503203531 | 18 | 232 | 1.6 | 12.9 | 0.00 | 0.00 | 0.00 | 33 | 1015.7 |
| 20260503203031 | 18 | 308 | 1.6 | 8.0 | 0.00 | 0.00 | 0.00 | 33 | 1015.8 |
| 20260503202532 | 18 | 0 | 3.2 | 8.0 | 0.00 | 0.00 | 0.00 | 31 | 1016.0 |
| 20260503202248 | 18 | 226 | 3.2 | 9.7 | 0.00 | 0.00 | 0.00 | 33 | 1016.0 |
| 20260503201530 | 18 | 208 | 3.2 | 9.7 | 0.00 | 0.00 | 0.00 | 30 | 1016.0 |
| 20260503201031 | 18 | 13 | 3.2 | 8.0 | 0.00 | 0.00 | 0.00 | 30 | 1016.1 |
| 20260503200530 | 18 | 152 | 3.2 | 16.1 | 0.00 | 0.00 | 0.00 | 32 | 1016.3 |
| 20260503200255 | 18 | 314 | 3.2 | 16.1 | 0.00 | 0.00 | 0.00 | 31 | 1016.2 |
| 20260503195531 | 18 | 234 | 3.2 | 8.0 | 0.00 | 0.00 | 0.00 | 29 | 1016.1 |
| 20260503195255 | 18 | 317 | 1.6 | 6.4 | 0.00 | 0.00 | 0.00 | 35 | 1016.3 |